DW9924 Weather Reports


Display with metric or nautical units.
time (UTC)temp
F
wind
direction
speed
MPH
gust
MPH
rain 1hr
in
rain 24hr
in
rain mn
in
humidity
%
barometer
mb
20260509144402 69 180 1.0 3.0 0.00 0.00 0.00 75 1015.9
20260509143402 68 175 1.0 3.0 0.00 0.00 0.00 75 1015.8
20260509140902 69 168 1.0 2.0 0.00 0.00 0.00 73 1016.0
20260509134903 69 141 1.0 2.0 0.00 0.00 0.00 73 1016.5
20260509134403 69 131 1.0 2.0 0.00 0.00 0.00 73 1016.4
20260509133902 69 212 1.0 3.0 0.00 0.00 0.00 74 1016.4
20260509133404 69 175 1.0 3.0 0.00 0.00 0.00 74 1016.4
20260509130905 69 177 1.0 3.0 0.00 0.00 0.00 73 1016.7
20260509124917 69 177 1.0 2.0 0.00 0.00 0.00 74 1016.9
20260509124402 69 179 1.0 3.0 0.00 0.00 0.00 73 1016.9
20260509123901 69 201 0.0 3.0 0.00 0.00 0.00 76 1017.0
20260509123403 68 181 1.0 3.0 0.00 0.00 0.00 75 1017.0
20260509121905 69 171 2.0 3.0 0.00 0.00 0.00 72 1017.2
20260509101401 69 240 1.0 3.0 0.00 0.00 0.00 71 1017.3
20260509094904 68 234 2.0 3.0 0.00 0.00 0.00 72 1017.4
20260509094402 67 197 1.0 5.0 0.00 0.00 0.00 73 1017.3
20260509093909 68 222 2.0 3.0 0.00 0.00 0.00 73 1017.2
20260509074902 67 238 2.0 3.0 0.00 0.00 0.00 69 1017.5
20260509074405 66 268 0.0 2.0 0.00 0.00 0.00 69 1017.5
20260509073404 66 274 1.0 2.0 0.00 0.00 0.00 69 1017.5
20260509020906 62 34 2.0 3.0 0.00 0.00 0.00 69 1016.4
20260509020407 62 44 1.0 3.0 0.00 0.00 0.00 69 1016.4
20260509014906 62 41 1.0 3.0 0.00 0.00 0.00 70 1016.3
20260509014407 62 18 1.0 2.0 0.00 0.00 0.00 70 1016.2
20260509013906 62 28 2.0 3.0 0.00 0.00 0.00 71 1016.3
20260509013407 62 29 2.0 3.0 0.00 0.00 0.00 71 1016.3
20260509010407 62 15 2.0 3.0 0.00 0.00 0.00 73 1016.3
20260509004906 62 23 2.0 3.0 0.00 0.00 0.00 72 1016.4
20260509004407 62 25 2.0 3.0 0.00 0.00 0.00 72 1016.5
20260509003907 62 25 2.0 3.0 0.00 0.00 0.00 72 1016.6
20260509001406 62 23 2.0 3.0 0.00 0.00 0.00 70 1016.6
20260509000906 63 25 2.0 3.0 0.00 0.00 0.00 70 1016.4
20260509000410 63 25 2.0 3.0 0.00 0.00 0.00 70 1016.4
20260508234906 63 27 2.0 3.0 0.00 0.00 0.00 69 1016.5
20260508233906 63 38 2.0 3.0 0.00 0.00 0.00 69 1016.4
20260508233406 63 36 2.0 3.0 0.00 0.00 0.00 68 1016.4
20260508231406 63 27 2.0 3.0 0.00 0.00 0.00 67 1016.4
20260508230906 64 22 2.0 3.0 0.00 0.00 0.00 67 1016.3
20260508230409 64 29 2.0 3.0 0.00 0.00 0.00 67 1016.3
20260508224406 64 19 2.0 3.0 0.00 0.00 0.00 66 1016.3
20260508223907 64 30 2.0 3.0 0.00 0.00 0.00 66 1016.4
20260508223407 64 13 1.0 3.0 0.00 0.00 0.00 65 1016.3
20260508221906 65 44 2.0 3.0 0.00 0.00 0.00 63 1016.1
20260508220905 65 19 2.0 3.0 0.00 0.00 0.00 62 1016.2
20260508214908 67 40 2.0 5.0 0.00 0.00 0.00 60 1016.1
20260508214405 67 26 2.0 3.0 0.00 0.00 0.00 59 1016.1
20260508213905 67 324 2.0 5.0 0.00 0.00 0.00 60 1016.0
20260508213406 67 21 3.0 9.0 0.00 0.00 0.00 60 1016.1
20260508211905 67 349 3.0 8.0 0.00 0.00 0.00 59 1015.8
20260508211405 67 333 4.0 8.0 0.00 0.00 0.00 59 1015.7
20260508210906 67 352 2.0 5.0 0.00 0.00 0.00 59 1015.6
20260508210406 67 335 2.0 6.0 0.00 0.00 0.00 58 1015.5
20260508204407 68 36 3.0 8.0 0.00 0.00 0.00 56 1015.6
20260508203905 68 359 3.0 6.0 0.00 0.00 0.00 56 1015.6
20260508203405 68 10 5.0 10.0 0.00 0.00 0.00 56 1015.6
20260508201905 68 90 3.0 8.0 0.00 0.00 0.00 56 1015.6
20260508201405 68 84 2.0 8.0 0.00 0.00 0.00 57 1015.5
20260508200905 68 134 2.0 8.0 0.00 0.00 0.00 58 1015.5
20260508200408 68 163 2.0 7.0 0.00 0.00 0.00 59 1015.5
20260508194906 68 135 3.0 7.0 0.00 0.00 0.00 58 1015.3
20260508194407 67 116 3.0 7.0 0.00 0.00 0.00 59 1015.3
20260508193906 67 127 1.0 3.0 0.00 0.00 0.00 60 1015.3
20260508193405 67 128 1.0 3.0 0.00 0.00 0.00 60 1015.3
20260508191907 67 248 1.0 7.0 0.00 0.00 0.00 61 1015.1
20260508190907 67 156 2.0 3.0 0.00 0.00 0.00 62 1015.0
20260508184905 68 87 0.0 2.0 0.00 0.00 0.00 62 1014.7
20260508184405 69 89 1.0 3.0 0.00 0.00 0.00 62 1014.6
20260508183905 69 326 0.0 2.0 0.00 0.00 0.00 62 1014.4
20260508181905 71 325 0.0 3.0 0.00 0.00 0.00 60 1014.1
20260508181405 71 28 0.0 3.0 0.00 0.00 0.00 59 1014.1
20260508180905 71 337 1.0 3.0 0.00 0.00 0.00 59 1014.0
20260508174905 72 229 0.0 1.0 0.00 0.00 0.00 58 1013.7
20260508174408 73 229 0.0 1.0 0.00 0.00 0.00 58 1013.6
20260508173908 73 201 1.0 2.0 0.00 0.00 0.00 57 1013.6
20260508173405 73 232 1.0 3.0 0.00 0.00 0.00 56 1013.5
20260508171905 73 244 1.0 2.0 0.00 0.00 0.00 55 1013.6
20260508171408 74 250 1.0 3.0 0.00 0.00 0.00 54 1013.6
20260508170905 74 322 1.0 2.0 0.00 0.00 0.00 53 1013.6
20260508170412 74 257 1.0 3.0 0.00 0.00 0.00 53 1013.5
20260508164905 74 278 1.0 3.0 0.00 0.00 0.00 51 1013.4
20260508164408 74 203 1.0 5.0 0.00 0.00 0.00 52 1013.4
20260508163407 74 266 1.0 3.0 0.00 0.00 0.00 49 1013.4
20260508161906 75 229 1.0 3.0 0.00 0.00 0.00 52 1013.5
20260508161405 75 264 2.0 5.0 0.00 0.00 0.00 51 1013.5
20260508160910 76 330 1.0 3.0 0.00 0.00 0.00 50 1013.4
20260508160406 75 275 1.0 5.0 0.00 0.00 0.00 49 1013.5
20260508154905 74 254 2.0 5.0 0.00 0.00 0.00 51 1013.5
20260508154406 74 228 2.0 3.0 0.00 0.00 0.00 52 1013.5
20260508153405 74 234 1.0 3.0 0.00 0.00 0.00 53 1013.5
20260508151405 74 250 2.0 3.0 0.00 0.00 0.00 50 1013.5
20260508150906 74 220 1.0 3.0 0.00 0.00 0.00 50 1013.5